Location: Hoye (historical)
(38.7605°N, 119.3832°W)
Time: 00:35:20
(UTC+00:00)

Daily predictions for brighter satellites

Satellite Brightness Start Highest point End
(mag) Time Altitude Azimuth Time Altitude Azimuth Time Altitude Azimuth
Meteor 2-9 Rocket 4.4 02:19:45 10° S 02:25:27 55° E 02:31:06 10° NNE
CZ-2C R/B 3.5 02:22:12 10° SE 02:27:03 44° ENE 02:32:13 10° N
Cosmos 923 Rocket 4.1 02:23:30 10° NNW 02:28:44 88° WSW 02:33:56 10° SSE
Cosmos 1844 Rocket 4.1 02:26:15 10° SE 02:29:09 14° E 02:32:02 10° ENE
USA 116 3.7 02:25:56 10° NNE 02:29:22 51° E 02:33:12 10° S
NOSS 2-2 (D) 3.5 02:28:02 10° S 02:31:21 38° ESE 02:34:44 10° NE
YAOGAN 1 2.6 02:27:39 10° SSE 02:31:55 63° ENE 02:36:12 10° N
Cosmos 2227 4.3 02:26:35 10° SSW 02:32:20 89° WNW 02:38:06 10° NNE
GP-B 3.3 02:29:46 10° N 02:34:13 79° W 02:38:38 10° S
Ariane Rocket 4.5 02:31:36 10° ESE 02:34:55 18° ENE 02:38:12 10° NNE
ATLAS 5 CENTAUR R/B 2.9 02:32:33 10° NNW 02:35:43 49° ENE 02:45:14 10° SE
Okean 2 3.5 02:32:57 10° N 02:37:05 57° E 02:41:09 10° SSE
Cosmos 1943 3.4 02:35:48 10° NNW 02:41:19 52° ENE 02:46:49 10° SE
Cosmos 1975 3.0 02:42:06 10° S 02:46:11 79° W 02:50:17 10° N
Cosmos 1464 Rocket 4.4 02:41:12 10° SSE 02:46:44 38° E 02:52:19 10° NNE
CZ-4 R/B 1.9 02:44:16 10° S 02:48:28 67° W 02:52:40 10° NNW
Tsikada Rocket 4.5 02:43:21 10° NNW 02:49:26 66° W 02:55:32 10° S
CSL-04 Debris 4.1 02:44:40 10° SSE 02:50:01 71° ENE 02:55:23 10° N
Cosmos 1898 Rocket 4.1 02:45:21 10° SSW 02:50:27 61° WNW 02:55:36 10° NNE
Cosmos 1782 Rocket 3.6 02:47:46 10° S 02:52:10 88° W 02:56:37 10° N
CZ-2C R/B 1.6 02:51:01 10° WSW 02:54:24 39° S 02:56:26 19° ESE
Meteor 1-21 4.1 02:49:35 10° N 02:55:11 71° E 03:00:45 10° SSE
Cosmos 1867 4.3 02:53:35 10° NNW 02:58:36 36° NE 03:02:04 18° ESE
Cosmos 1025 Rocket 4.1 02:55:09 10° NNE 02:58:47 25° ENE 03:00:46 18° ESE
CSL-04 Rocket 3.6 02:53:53 10° SSE 02:59:16 81° ENE 03:04:45 10° NNW
Cosmos 1603 3.7 02:55:29 10° NNW 03:01:11 89° ENE 03:06:47 10° SSE
Milstar 3 Cent rocket 3.8 02:59:06 10° SSW 03:03:36 18° S 03:06:06 13° SE
Cosmos 1842 3.6 03:01:45 10° NNW 03:05:35 65° W 03:09:24 10° S
Cosmos 372 Rocket 3.9 03:02:44 10° S 03:07:54 63° ESE 03:13:05 10° NNE
Cosmos 2150 Rocket 4.4 03:08:02 10° S 03:13:03 43° ESE 03:18:09 10° NNE
Cosmos 1891 Rocket 4.4 03:08:10 10° S 03:14:17 69° E 03:20:19 10° NNE
NOSS 2-2 (C) 3.7 03:12:25 10° SW 03:15:52 57° NW 03:19:31 10° NNE
Cosmos 1707 2.7 03:15:41 10° N 03:19:28 59° E 03:21:45 22° SSE
Cosmos 1975 Rocket 3.3 03:15:41 10° NNW 03:19:59 67° W 03:24:15 10° S
Cosmos 2084 Rocket 3.6 03:15:43 10° NW 03:20:11 77° WSW 03:23:22 19° SSE
SJ-6B 3.4 03:19:56 31° E 03:20:11 32° ENE 03:23:32 10° N
MOS 1 Rocket 3.4 03:18:20 10° N 03:22:45 69° WNW 03:27:00 10° SSW
Cosmos 1125 Rocket 4.1 03:18:18 10° SSE 03:23:01 34° E 03:27:47 10° NE
ISS -2.8 03:20:42 10° WSW 03:23:57 46° NW 03:26:13 18° NE
Resurs 01 Rocket 3.6 03:27:08 14° NE 03:27:08 14° NE 03:28:37 10° NNE
Sich 1 Rocket 4.4 03:27:35 10° SSW 03:31:58 54° W 03:36:25 10° N
USA 234 3.2 03:33:27 10° NE 03:40:00 70° SE 03:46:31 10° SW
H-2A R/B 2.9 03:36:31 10° S 03:41:14 47° W 03:46:05 10° NNW
Cosmos 2034 Rocket 3.9 03:37:23 10° S 03:43:44 79° E 03:50:07 10° N
Nadezhda 4 Rocket 3.9 03:38:29 10° N 03:44:33 64° E 03:47:45 29° SSE
SL-08 RB Rocket 3.8 03:43:25 21° S 03:46:27 78° WSW 03:51:02 10° NNW
In-Cosmos 22 3.9 03:41:12 10° N 03:46:31 84° E 03:49:37 26° SSE
ARGOS 3.6 03:41:30 10° S 03:46:45 60° W 03:52:04 10° NNW
Cosmos 1174 4.5 03:42:37 10° SSW 03:47:16 81° WNW 03:53:14 10° NNE
Okean 2 Rocket 3.9 03:47:08 10° SSW 03:51:32 52° W 03:55:56 10° N
BREEZE-M DEB (TANK) 4.0 03:49:43 10° WSW 03:52:56 60° NNW 04:03:10 10° NE
CZ-2C R/B 2.8 03:48:46 10° N 03:54:20 81° WNW 03:59:56 10° SSW
Okean 1 Rocket 4.4 03:57:02 28° NNE 03:57:02 28° NNE 03:59:20 10° NNE
Cosmos 1048 Rocket 4.1 03:49:49 10° N 03:55:03 56° ENE 03:55:33 54° E
USA 186 2.9 03:57:54 41° W 03:57:54 41° W 04:00:39 10° NNW
MOS 1 4.2 03:56:46 32° SSE 03:59:32 89° WSW 04:05:16 10° NNW
Cosmos 1844 3.5 03:55:47 10° SSW 04:01:30 78° ESE 04:07:11 10° NNE
Resurs 1-3 4.3 04:04:57 43° NNE 04:04:57 43° NNE 04:08:11 10° N
DELTA 2 R/B (1) 4.1 04:02:27 10° W 04:07:44 46° SSW 04:08:23 44° S
BREEZE-M DEB (TANK) 4.5 03:49:03 10° WNW 04:10:05 88° SSW 04:12:07 51° ESE
Cosmos 1844 Rocket 2.9 04:06:48 10° SSW 04:12:20 68° WNW 04:17:54 10° NNE
Ariane Rocket 3.6 04:11:02 29° SSW 04:13:23 53° W 04:18:23 10° NNW
Cosmos 1634 Rocket 3.9 04:17:30 61° ENE 04:17:30 61° ENE 04:23:08 10° NNE
ATLAS 2AS CENTAUR R/B 3.1 04:09:41 10° S 04:20:13 36° ENE 04:24:55 10° NE
OBJECT-B 3.6 04:20:34 15° NNW 04:20:34 15° NNW 04:21:14 10° NNW
Cosmos 2285 Rocket 3.9 04:16:29 10° SSW 04:22:46 84° WNW 04:29:09 10° NNE
Cosmos 1536 Rocket 4.4 04:19:46 10° NNW 04:24:02 46° W 04:24:21 46° WSW
SPOT 3 Rocket 3.7 04:26:58 67° N 04:26:58 67° N 04:31:25 10° NNW
Cosmos 494 Rocket 4.4 04:21:38 10° NNW 04:25:46 53° N 04:25:46 53° N
CENTAUR R/B 3.2 04:25:13 10° NNW 04:33:22 62° NE 04:34:28 58° E
CZ-2C R/B 3.9 04:30:31 10° WSW 04:30:47 12° WSW 04:30:47 12° WSW
Cosmos 1627 Rocket 4.5 04:31:08 10° N 04:37:09 78° NNE 04:37:09 78° NNE
ATLAS 3B R/B 4.1 04:33:44 10° NNW 04:39:00 25° NE 04:39:00 25° NE
USA 238 DEB 3.7 04:35:02 10° NW 04:42:23 87° WSW 04:42:53 79° SSE
USA 238 3.7 04:35:09 10° NW 04:42:29 88° WSW 04:42:58 80° SSE
Cosmos 1092 Rocket 4.0 04:37:13 10° NNW 04:43:20 71° W 04:43:35 70° WSW
Cosmos 2026 Rocket 4.1 04:44:05 10° N 04:49:46 72° NNW 04:49:46 72° NNW
Resurs 01 Rocket 3.9 05:04:44 22° NW 05:04:44 22° NW 05:06:27 10° NNW
NOSS 3-2 (A) 4.4 05:02:51 10° NW 05:10:29 58° WSW 05:11:00 57° SW
Cosmos 2082 Rocket 4.4 05:14:20 10° N 05:15:44 16° N 05:15:44 16° N
USA 234 4.4 05:17:05 11° NNE 05:22:42 37° NNW 05:28:35 10° W
ATLAS 2AS CENTAUR R/B 4.1 06:01:11 10° WSW 06:08:30 39° NW 06:15:49 10° NNE
USA 267 4.4 09:47:58 10° NE 09:51:38 37° NE 09:51:38 37° NE
ADEOS II 4.3 10:01:29 10° NNE 10:03:06 20° NNE 10:03:06 20° NNE
IDEFIX/ARIANE 42P 4.5 10:14:27 10° NE 10:17:40 25° ENE 10:17:40 25° ENE
ARIANE 5 R/B 4.4 10:20:55 10° NNE 10:23:29 27° NE 10:23:29 27° NE
ASTEX 1 4.4 10:49:51 10° NNE 10:53:47 44° ENE 10:53:47 44° ENE
Cosmos 1697 Rocket 3.5 11:01:19 43° N 11:01:19 43° N 11:05:12 10° NNE
Cosmos 1980 Rocket 2.4 11:04:20 69° ENE 11:04:20 69° ENE 11:09:32 10° NNE
Cosmos 2263 Rocket 4.2 11:11:06 10° N 11:15:50 27° ENE 11:20:33 10° ESE
CZ-2C R/B 4.5 11:13:24 10° NNE 11:15:28 30° NE 11:15:28 30° NE
SL-16 R/B 4.1 11:13:21 11° SSE 11:17:42 25° ESE 11:22:15 10° NE
Spot 4 Rocket 4.1 11:17:34 10° N 11:22:08 68° NNW 11:22:08 68° NNW
Meteor 1-14 Rocket 4.4 11:17:34 10° N 11:23:09 67° E 11:28:39 10° SSE
Lacrosse 5 2.9 11:27:59 34° NNW 11:27:59 34° NNW 11:32:05 10° NNE
Cosmos 1238 Rocket 4.1 11:22:05 10° N 11:28:43 77° E 11:34:42 10° SSE
CZ-4C R/B 4.3 11:30:59 39° NE 11:30:59 39° NE 11:33:42 10° N
Celestis-02/Orion 38 4.5 11:25:38 10° SSE 11:30:57 87° WSW 11:36:10 10° NNW
Cosmos 921 Rocket 3.4 11:32:00 55° ESE 11:32:08 56° ESE 11:36:14 10° NNE
NOSS 3-3 (A) 3.8 11:32:28 53° S 11:33:50 77° ESE 11:40:08 10° NE
NOSS 3-3 (C) 3.8 11:32:38 53° S 11:33:59 76° ESE 11:40:12 10° NE
Cosmos 44 3.2 11:37:03 62° NNW 11:37:03 62° NNW 11:41:04 10° NNE
USA 267 4.2 11:31:23 10° NNE 11:37:07 34° NNW 11:38:59 29° WNW
Cosmos 972 4.3 11:38:26 72° W 11:38:35 72° WNW 11:43:30 10° NNE
Cosmos 2228 Rocket 3.0 11:38:52 77° SE 11:39:06 82° E 11:43:31 10° N
Cosmos 1821 Rocket 4.4 11:34:21 10° NNW 11:39:20 41° WNW 11:39:20 41° WNW
Cosmos 1933 Rocket 4.4 11:36:45 10° NNW 11:39:29 37° NNW 11:39:29 37° NNW
X-37B 2.7 11:42:47 23° NNE 11:42:47 23° NNE 11:44:56 10° ENE
Meteor 1-4 Rocket 3.9 11:43:45 29° SE 11:44:49 37° E 11:48:03 10° NNE
ADEOS II 4.1 11:42:39 10° NNW 11:44:01 14° NW 11:44:01 14° NW
GENESIS II 4.3 11:46:42 72° SE 11:46:51 74° ESE 11:50:53 10° NE
